Year,Month,Day,Hour,Minute,Value (Times are PST for temperature in C)
2006,12,14,00,00,5.00
2006,12,14,00,01,5.00
2006,12,14,00,02,5.00
2006,12,14,00,03,5.00
2006,12,14,00,04,5.00
2006,12,14,00,05,5.00
2006,12,14,00,06,5.00
2006,12,14,00,07,5.00
2006,12,14,00,08,4.90
2006,12,14,00,09,4.90
2006,12,14,00,10,4.90
2006,12,14,00,11,4.90
2006,12,14,00,12,4.90
2006,12,14,00,13,4.90
2006,12,14,00,14,4.90
2006,12,14,00,15,4.90
2006,12,14,00,16,4.80
2006,12,14,00,17,4.80
2006,12,14,00,18,4.80
2006,12,14,00,19,4.80
2006,12,14,00,20,4.80
2006,12,14,00,21,4.80
2006,12,14,00,22,4.70
2006,12,14,00,23,4.70
2006,12,14,00,24,4.70
2006,12,14,00,25,4.70
2006,12,14,00,26,4.60
2006,12,14,00,27,4.50
2006,12,14,00,28,4.50
2006,12,14,00,29,4.40
2006,12,14,00,30,4.40
2006,12,14,00,31,4.30
2006,12,14,00,32,4.30
2006,12,14,00,33,4.20
2006,12,14,00,34,4.20
2006,12,14,00,35,4.10
2006,12,14,00,36,4.10
2006,12,14,00,37,4.10
2006,12,14,00,38,4.10
2006,12,14,00,39,4.10
2006,12,14,00,40,4.00
2006,12,14,00,41,4.00
2006,12,14,00,42,4.00
2006,12,14,00,43,4.00
2006,12,14,00,44,4.00
2006,12,14,00,45,4.00
2006,12,14,00,46,3.90
2006,12,14,00,47,3.90
2006,12,14,00,48,3.90
2006,12,14,00,49,3.90
2006,12,14,00,50,3.90
2006,12,14,00,51,3.90
2006,12,14,00,52,3.90
2006,12,14,00,53,3.90
2006,12,14,00,54,3.90
2006,12,14,00,55,3.90
2006,12,14,00,56,3.80
2006,12,14,00,57,3.80
2006,12,14,00,58,3.70
2006,12,14,00,59,3.70
2006,12,14,01,00,3.70
2006,12,14,01,01,3.60
2006,12,14,01,02,3.50
2006,12,14,01,03,3.40
2006,12,14,01,04,3.40
2006,12,14,01,05,3.30
2006,12,14,01,06,3.30
2006,12,14,01,07,3.20
2006,12,14,01,08,3.20
2006,12,14,01,09,3.20
2006,12,14,01,10,3.20
2006,12,14,01,11,3.10
2006,12,14,01,12,3.10
2006,12,14,01,13,3.10
2006,12,14,01,14,3.00
2006,12,14,01,15,3.00
2006,12,14,01,16,3.00
2006,12,14,01,17,2.90
2006,12,14,01,18,2.90
2006,12,14,01,19,2.90
2006,12,14,01,20,2.90
2006,12,14,01,21,2.90
2006,12,14,01,22,2.80
2006,12,14,01,23,2.80
2006,12,14,01,24,2.80
2006,12,14,01,25,2.70
2006,12,14,01,26,2.70
2006,12,14,01,27,2.70
2006,12,14,01,28,2.70
2006,12,14,01,29,2.60
2006,12,14,01,30,2.60
2006,12,14,01,31,2.60
2006,12,14,01,32,2.60
2006,12,14,01,33,2.60
2006,12,14,01,34,2.60
2006,12,14,01,35,2.60
2006,12,14,01,36,2.60
2006,12,14,01,37,2.60
2006,12,14,01,38,2.60
2006,12,14,01,39,2.60
2006,12,14,01,40,2.60
2006,12,14,01,41,2.60
2006,12,14,01,42,2.60
2006,12,14,01,43,2.60
2006,12,14,01,44,2.60
2006,12,14,01,45,2.60
2006,12,14,01,46,2.60
2006,12,14,01,47,2.60
2006,12,14,01,48,2.60
2006,12,14,01,49,2.60
2006,12,14,01,50,2.60
2006,12,14,01,51,2.60
2006,12,14,01,52,2.60
2006,12,14,01,53,2.60
2006,12,14,01,54,2.60
2006,12,14,01,55,2.50
2006,12,14,01,56,2.50
2006,12,14,01,57,2.40
2006,12,14,01,58,2.40
2006,12,14,01,59,2.40
2006,12,14,02,00,2.30
2006,12,14,02,01,2.30
2006,12,14,02,02,2.30
2006,12,14,02,03,2.20
2006,12,14,02,04,2.20
2006,12,14,02,05,2.20
2006,12,14,02,06,2.10
2006,12,14,02,07,2.10
2006,12,14,02,08,2.10
2006,12,14,02,09,2.10
2006,12,14,02,10,2.00
2006,12,14,02,11,2.00
2006,12,14,02,12,2.00
2006,12,14,02,13,1.90
2006,12,14,02,14,1.90
2006,12,14,02,15,1.90
2006,12,14,02,16,1.90
2006,12,14,02,17,1.80
2006,12,14,02,18,1.80
2006,12,14,02,19,1.80
2006,12,14,02,20,1.80
2006,12,14,02,21,1.70
2006,12,14,02,22,1.70
2006,12,14,02,23,1.70
2006,12,14,02,24,1.70
2006,12,14,02,25,1.70
2006,12,14,02,26,1.70
2006,12,14,02,27,1.70
2006,12,14,02,28,1.70
2006,12,14,02,29,1.70
2006,12,14,02,30,1.70
2006,12,14,02,31,1.70
2006,12,14,02,32,1.70
2006,12,14,02,33,1.70
2006,12,14,02,34,1.60
2006,12,14,02,35,1.60
2006,12,14,02,36,1.60
2006,12,14,02,37,1.60
2006,12,14,02,38,1.50
2006,12,14,02,39,1.40
2006,12,14,02,40,1.40
2006,12,14,02,41,1.30
2006,12,14,02,42,1.30
2006,12,14,02,43,1.30
2006,12,14,02,44,1.30
2006,12,14,02,45,1.30
2006,12,14,02,46,1.30
2006,12,14,02,47,1.30
2006,12,14,02,48,1.30
2006,12,14,02,49,1.30
2006,12,14,02,50,1.30
2006,12,14,02,51,1.30
2006,12,14,02,52,1.30
2006,12,14,02,53,1.30
2006,12,14,02,54,1.30
2006,12,14,02,55,1.30
2006,12,14,02,56,1.30
2006,12,14,02,57,1.30
2006,12,14,02,58,1.30
2006,12,14,02,59,1.30
2006,12,14,03,00,1.30
2006,12,14,03,01,1.30
2006,12,14,03,02,1.30
2006,12,14,03,03,1.30
2006,12,14,03,04,1.30
2006,12,14,03,05,1.30
2006,12,14,03,06,1.30
2006,12,14,03,07,1.30
2006,12,14,03,08,1.30
2006,12,14,03,09,1.30
2006,12,14,03,10,1.30
2006,12,14,03,11,1.30
2006,12,14,03,12,1.30
2006,12,14,03,13,1.30
2006,12,14,03,14,1.30
2006,12,14,03,15,1.30
2006,12,14,03,16,1.30
2006,12,14,03,17,1.40
2006,12,14,03,18,1.40
2006,12,14,03,19,1.40
2006,12,14,03,20,1.50
2006,12,14,03,21,1.50
2006,12,14,03,22,1.60
2006,12,14,03,23,1.60
2006,12,14,03,24,1.60
2006,12,14,03,25,1.60
2006,12,14,03,26,1.60
2006,12,14,03,27,1.50
2006,12,14,03,28,1.50
2006,12,14,03,29,1.40
2006,12,14,03,30,1.30
2006,12,14,03,31,1.30
2006,12,14,03,32,1.30
2006,12,14,03,33,1.30
2006,12,14,03,34,1.30
2006,12,14,03,35,1.30
2006,12,14,03,36,1.30
2006,12,14,03,37,1.30
2006,12,14,03,38,1.30
2006,12,14,03,39,1.30
2006,12,14,03,40,1.30
2006,12,14,03,41,1.30
2006,12,14,03,42,1.30
2006,12,14,03,43,1.30
2006,12,14,03,44,1.20
2006,12,14,03,45,1.20
2006,12,14,03,46,1.10
2006,12,14,03,47,1.10
2006,12,14,03,48,1.10
2006,12,14,03,49,1.10
2006,12,14,03,50,1.00
2006,12,14,03,51,1.00
2006,12,14,03,52,1.00
2006,12,14,03,53,1.00
2006,12,14,03,54,1.10
2006,12,14,03,55,1.10
2006,12,14,03,56,1.10
2006,12,14,03,57,1.10
2006,12,14,03,58,1.10
2006,12,14,03,59,1.20
2006,12,14,04,00,1.20
2006,12,14,04,01,1.20
2006,12,14,04,02,1.20
2006,12,14,04,03,1.20
2006,12,14,04,04,1.20
2006,12,14,04,05,1.30
2006,12,14,04,06,1.30
2006,12,14,04,07,1.30
2006,12,14,04,08,1.30
2006,12,14,04,09,1.30
2006,12,14,04,10,1.30
2006,12,14,04,11,1.30
2006,12,14,04,12,1.30
2006,12,14,04,13,1.30
2006,12,14,04,14,1.30
2006,12,14,04,15,1.30
2006,12,14,04,16,1.30
2006,12,14,04,17,1.40
2006,12,14,04,18,1.50
2006,12,14,04,19,1.50
2006,12,14,04,20,1.50
2006,12,14,04,21,1.60
2006,12,14,04,22,1.60
2006,12,14,04,23,1.60
2006,12,14,04,24,1.60
2006,12,14,04,25,1.60
2006,12,14,04,26,1.70
2006,12,14,04,27,1.70
2006,12,14,04,28,1.70
2006,12,14,04,29,1.70
2006,12,14,04,30,1.70
2006,12,14,04,31,1.70
2006,12,14,04,32,1.60
2006,12,14,04,33,1.60
2006,12,14,04,34,1.50
2006,12,14,04,35,1.50
2006,12,14,04,36,1.40
2006,12,14,04,37,1.40
2006,12,14,04,38,1.30
2006,12,14,04,39,1.30
2006,12,14,04,40,1.30
2006,12,14,04,41,1.30
2006,12,14,04,42,1.30
2006,12,14,04,43,1.30
2006,12,14,04,44,1.30
2006,12,14,04,45,1.30
2006,12,14,04,46,1.40
2006,12,14,04,47,1.40
2006,12,14,04,48,1.40
2006,12,14,04,49,1.40
2006,12,14,04,50,1.50
2006,12,14,04,51,1.50
2006,12,14,04,52,1.50
2006,12,14,04,53,1.50
2006,12,14,04,54,1.60
2006,12,14,04,55,1.60
2006,12,14,04,56,1.60
2006,12,14,04,57,1.60
2006,12,14,04,58,1.60
2006,12,14,04,59,1.60
2006,12,14,05,00,1.60
2006,12,14,05,01,1.60
2006,12,14,05,02,1.60
2006,12,14,05,03,1.60
2006,12,14,05,04,1.60
2006,12,14,05,05,1.60
2006,12,14,05,06,1.60
2006,12,14,05,07,1.60
2006,12,14,05,08,1.60
2006,12,14,05,09,1.70
2006,12,14,05,10,1.70
2006,12,14,05,11,1.70
2006,12,14,05,12,1.70
2006,12,14,05,13,1.70
2006,12,14,05,14,1.70
2006,12,14,05,15,1.70
2006,12,14,05,16,1.70
2006,12,14,05,17,1.70
2006,12,14,05,18,1.70
2006,12,14,05,19,1.80
2006,12,14,05,20,1.80
2006,12,14,05,21,1.80
2006,12,14,05,22,1.80
2006,12,14,05,23,1.80
2006,12,14,05,24,1.80
2006,12,14,05,25,1.70
2006,12,14,05,26,1.70
2006,12,14,05,27,1.70
2006,12,14,05,28,1.70
2006,12,14,05,29,1.70
2006,12,14,05,30,1.70
2006,12,14,05,31,1.70
2006,12,14,05,32,1.70
2006,12,14,05,33,1.70
2006,12,14,05,34,1.70
2006,12,14,05,35,1.70
2006,12,14,05,36,1.70
2006,12,14,05,37,1.70
2006,12,14,05,38,1.80
2006,12,14,05,39,1.80
2006,12,14,05,40,1.80
2006,12,14,05,41,1.80
2006,12,14,05,42,1.80
2006,12,14,05,43,1.80
2006,12,14,05,44,1.80
2006,12,14,05,45,1.90
2006,12,14,05,46,1.90
2006,12,14,05,47,1.90
2006,12,14,05,48,1.90
2006,12,14,05,49,1.90
2006,12,14,05,50,1.90
2006,12,14,05,51,2.00
2006,12,14,05,52,2.00
2006,12,14,05,53,2.10
2006,12,14,05,54,2.20
2006,12,14,05,55,2.20
2006,12,14,05,56,2.30
2006,12,14,05,57,2.40
2006,12,14,05,58,2.50
2006,12,14,05,59,2.70
2006,12,14,06,00,2.90
2006,12,14,06,01,3.00
2006,12,14,06,02,3.10
2006,12,14,06,03,3.20
2006,12,14,06,04,3.20
2006,12,14,06,05,3.20
2006,12,14,06,06,3.20
2006,12,14,06,07,3.20
2006,12,14,06,08,3.20
2006,12,14,06,09,3.20
2006,12,14,06,10,3.30
2006,12,14,06,11,3.30
2006,12,14,06,12,3.40
2006,12,14,06,13,3.50
2006,12,14,06,14,3.50
2006,12,14,06,15,3.60
2006,12,14,06,16,3.80
2006,12,14,06,17,4.00
2006,12,14,06,18,4.20
2006,12,14,06,19,4.30
2006,12,14,06,20,4.40
2006,12,14,06,21,4.50
2006,12,14,06,22,4.60
2006,12,14,06,23,4.70
2006,12,14,06,24,4.90
2006,12,14,06,25,4.90
2006,12,14,06,26,4.90
2006,12,14,06,27,4.90
2006,12,14,06,28,5.00
2006,12,14,06,29,5.10
2006,12,14,06,30,5.10
2006,12,14,06,31,5.10
2006,12,14,06,32,5.10
2006,12,14,06,33,5.10
2006,12,14,06,34,5.20
2006,12,14,06,35,5.20
2006,12,14,06,36,5.20
2006,12,14,06,37,5.30
2006,12,14,06,38,5.30
2006,12,14,06,39,5.30
2006,12,14,06,40,5.30
2006,12,14,06,41,5.30
2006,12,14,06,42,5.30
2006,12,14,06,43,5.30
2006,12,14,06,44,5.20
2006,12,14,06,45,5.20
2006,12,14,06,46,5.20
2006,12,14,06,47,5.20
2006,12,14,06,48,5.20
2006,12,14,06,49,5.30
2006,12,14,06,50,5.30
2006,12,14,06,51,5.30
2006,12,14,06,52,5.30
2006,12,14,06,53,5.40
2006,12,14,06,54,5.40
2006,12,14,06,55,5.40
2006,12,14,06,56,5.40
2006,12,14,06,57,5.40
2006,12,14,06,58,5.40
2006,12,14,06,59,5.40
2006,12,14,07,00,5.40
2006,12,14,07,01,5.50
2006,12,14,07,02,5.50
2006,12,14,07,03,5.50
2006,12,14,07,04,5.50
2006,12,14,07,05,5.50
2006,12,14,07,06,5.50
2006,12,14,07,07,5.50
2006,12,14,07,08,5.50
2006,12,14,07,09,5.50
2006,12,14,07,10,5.50
2006,12,14,07,11,5.50
2006,12,14,07,12,5.50
2006,12,14,07,13,5.50
2006,12,14,07,14,5.50
2006,12,14,07,15,5.60
2006,12,14,07,16,5.60
2006,12,14,07,17,5.60
2006,12,14,07,18,5.60
2006,12,14,07,19,5.60
2006,12,14,07,20,5.50
2006,12,14,07,21,5.50
2006,12,14,07,22,5.50
2006,12,14,07,23,5.50
2006,12,14,07,24,5.40
2006,12,14,07,25,5.50
2006,12,14,07,26,5.40
2006,12,14,07,27,5.40
2006,12,14,07,28,5.40
2006,12,14,07,29,5.50
2006,12,14,07,30,5.50
2006,12,14,07,31,5.50
2006,12,14,07,32,5.50
2006,12,14,07,33,5.60
2006,12,14,07,34,5.50
2006,12,14,07,35,5.60
2006,12,14,07,36,5.60
2006,12,14,07,37,5.60
2006,12,14,07,38,5.60
2006,12,14,07,39,5.60
2006,12,14,07,40,5.60
2006,12,14,07,41,5.60
2006,12,14,07,42,5.60
2006,12,14,07,43,5.60
2006,12,14,07,44,5.60
2006,12,14,07,45,5.60
2006,12,14,07,46,5.60
2006,12,14,07,47,5.60
2006,12,14,07,48,5.60
2006,12,14,07,49,5.60
2006,12,14,07,50,5.60
2006,12,14,07,51,5.60
2006,12,14,07,52,5.60
2006,12,14,07,53,5.70
2006,12,14,07,54,5.70
2006,12,14,07,55,5.70
2006,12,14,07,56,5.70
2006,12,14,07,57,5.70
2006,12,14,07,58,5.70
2006,12,14,07,59,5.70
2006,12,14,08,00,5.70
2006,12,14,08,01,5.70
2006,12,14,08,02,5.70
2006,12,14,08,03,5.70
2006,12,14,08,04,5.70
2006,12,14,08,05,5.70
2006,12,14,08,06,5.70
2006,12,14,08,07,5.80
2006,12,14,08,08,5.80
2006,12,14,08,09,5.80
2006,12,14,08,10,5.90
2006,12,14,08,11,5.90
2006,12,14,08,12,5.90
2006,12,14,08,13,5.90
2006,12,14,08,14,5.90
2006,12,14,08,15,6.00
2006,12,14,08,16,6.00
2006,12,14,08,17,6.00
2006,12,14,08,18,6.10
2006,12,14,08,19,6.10
2006,12,14,08,20,6.10
2006,12,14,08,21,6.10
2006,12,14,08,22,6.10
2006,12,14,08,23,6.10
2006,12,14,08,24,6.10
2006,12,14,08,25,6.10
2006,12,14,08,26,6.10
2006,12,14,08,27,6.10
2006,12,14,08,28,6.10
2006,12,14,08,29,6.10
2006,12,14,08,30,6.10
2006,12,14,08,31,6.10
2006,12,14,08,32,6.10
2006,12,14,08,33,6.10
2006,12,14,08,34,6.10
2006,12,14,08,35,6.10
2006,12,14,08,36,6.10
2006,12,14,08,37,6.10
2006,12,14,08,38,6.00
2006,12,14,08,39,6.00
2006,12,14,08,40,6.00
2006,12,14,08,41,6.00
2006,12,14,08,42,6.00
2006,12,14,08,43,6.00
2006,12,14,08,44,6.00
2006,12,14,08,45,6.00
2006,12,14,08,46,6.00
2006,12,14,08,47,6.00
2006,12,14,08,48,6.00
2006,12,14,08,49,6.00
2006,12,14,08,50,6.00
2006,12,14,08,51,6.00
2006,12,14,08,52,6.00
2006,12,14,08,53,6.00
2006,12,14,08,54,6.00
2006,12,14,08,55,5.90
2006,12,14,08,56,5.90
2006,12,14,08,57,5.90
2006,12,14,08,58,5.90
2006,12,14,08,59,5.90
2006,12,14,09,00,5.90
2006,12,14,09,01,5.90
2006,12,14,09,02,5.90
2006,12,14,09,03,5.90
2006,12,14,09,04,5.90
2006,12,14,09,05,5.80
2006,12,14,09,06,5.80
2006,12,14,09,07,5.80
2006,12,14,09,08,5.80
2006,12,14,09,09,5.80
2006,12,14,09,10,5.80
2006,12,14,09,11,5.80
2006,12,14,09,12,5.80
2006,12,14,09,13,5.80
2006,12,14,09,14,5.80
2006,12,14,09,15,5.70
2006,12,14,09,16,5.70
2006,12,14,09,17,5.70
2006,12,14,09,18,5.70
2006,12,14,09,19,5.70
2006,12,14,09,20,5.70
2006,12,14,09,21,5.70
2006,12,14,09,22,5.70
2006,12,14,09,23,5.70
2006,12,14,09,24,5.70
2006,12,14,09,25,5.70
2006,12,14,09,26,5.70
2006,12,14,09,27,5.70
2006,12,14,09,28,5.70
2006,12,14,09,29,5.70
2006,12,14,09,30,5.60
2006,12,14,09,31,5.60
2006,12,14,09,32,5.60
2006,12,14,09,33,5.60
2006,12,14,09,34,5.60
2006,12,14,09,35,5.60
2006,12,14,09,36,5.60
2006,12,14,09,37,5.60
2006,12,14,09,38,5.60
2006,12,14,09,39,5.60
2006,12,14,09,40,5.60
2006,12,14,09,41,5.60
2006,12,14,09,42,5.60
2006,12,14,09,43,5.60
2006,12,14,09,44,5.60
2006,12,14,09,45,5.60
2006,12,14,09,46,5.60
2006,12,14,09,47,5.60
2006,12,14,09,48,5.60
2006,12,14,09,49,5.60
2006,12,14,09,50,5.60
2006,12,14,09,51,5.60
2006,12,14,09,52,5.60
2006,12,14,09,53,5.60
2006,12,14,09,54,5.60
2006,12,14,09,55,5.60
2006,12,14,09,56,5.60
2006,12,14,09,57,5.60
2006,12,14,09,58,5.60
2006,12,14,09,59,5.60
2006,12,14,10,00,5.60
2006,12,14,10,01,5.70
2006,12,14,10,02,5.70
2006,12,14,10,03,5.70
2006,12,14,10,04,5.70
2006,12,14,10,05,5.60
2006,12,14,10,06,5.60
2006,12,14,10,07,5.60
2006,12,14,10,08,5.60
2006,12,14,10,09,5.60
2006,12,14,10,10,5.60
2006,12,14,10,11,5.60
2006,12,14,10,12,5.60
2006,12,14,10,13,5.60
2006,12,14,10,14,5.60
2006,12,14,10,15,5.60
2006,12,14,10,16,5.60
2006,12,14,10,17,5.50
2006,12,14,10,18,5.50
2006,12,14,10,19,5.50
2006,12,14,10,20,5.50
2006,12,14,10,21,5.50
2006,12,14,10,22,5.50
2006,12,14,10,23,5.40
2006,12,14,10,24,5.40
2006,12,14,10,25,5.40
2006,12,14,10,26,5.40
2006,12,14,10,27,5.40
2006,12,14,10,28,5.30
2006,12,14,10,29,5.30
2006,12,14,10,30,5.30
2006,12,14,10,31,5.30
2006,12,14,10,32,5.20
2006,12,14,10,33,5.20
2006,12,14,10,34,5.20
2006,12,14,10,35,5.20
2006,12,14,10,36,5.20
2006,12,14,10,37,5.20
2006,12,14,10,38,5.20
2006,12,14,10,39,5.30
2006,12,14,10,40,5.30
2006,12,14,10,41,5.20
2006,12,14,10,42,5.20
2006,12,14,10,43,5.30
2006,12,14,10,44,5.30
2006,12,14,10,45,5.30
2006,12,14,10,46,5.30
2006,12,14,10,47,5.30
2006,12,14,10,48,5.30
2006,12,14,10,49,5.30
2006,12,14,10,50,5.30
2006,12,14,10,51,5.30
2006,12,14,10,52,5.30
2006,12,14,10,53,5.30
2006,12,14,10,54,5.30
2006,12,14,10,55,5.30
2006,12,14,10,56,5.30
2006,12,14,10,57,5.30
2006,12,14,10,58,5.30
2006,12,14,10,59,5.30
2006,12,14,11,00,5.30
2006,12,14,11,01,5.30
2006,12,14,11,02,5.30
2006,12,14,11,03,5.30
2006,12,14,11,04,5.30
2006,12,14,11,05,5.30
2006,12,14,11,06,5.20
2006,12,14,11,07,5.20
2006,12,14,11,08,5.20
2006,12,14,11,09,5.20
2006,12,14,11,10,5.20
2006,12,14,11,11,5.10
2006,12,14,11,12,5.10
2006,12,14,11,13,5.10
2006,12,14,11,14,5.10
2006,12,14,11,15,5.00
2006,12,14,11,16,4.90
2006,12,14,11,17,4.90
2006,12,14,11,18,4.90
2006,12,14,11,19,4.80
2006,12,14,11,20,4.80
2006,12,14,11,21,4.80
2006,12,14,11,22,4.80
2006,12,14,11,23,4.70
2006,12,14,11,24,4.70
2006,12,14,11,25,4.70
2006,12,14,11,26,4.70
2006,12,14,11,27,4.70
2006,12,14,11,28,4.70
2006,12,14,11,29,4.60
2006,12,14,11,30,4.60
2006,12,14,11,31,4.60
2006,12,14,11,32,4.60
2006,12,14,11,33,4.60
2006,12,14,11,34,4.70
2006,12,14,11,35,4.60
2006,12,14,11,36,4.60
2006,12,14,11,37,4.60
2006,12,14,11,38,4.60
2006,12,14,11,39,4.60
2006,12,14,11,40,4.60
2006,12,14,11,41,4.60
2006,12,14,11,42,4.60
2006,12,14,11,43,4.50
2006,12,14,11,44,4.50
2006,12,14,11,45,4.40
2006,12,14,11,46,4.40
2006,12,14,11,47,4.40
2006,12,14,11,48,4.30
2006,12,14,11,49,4.30
2006,12,14,11,50,4.30
2006,12,14,11,51,4.20
2006,12,14,11,52,4.20
2006,12,14,11,53,4.20
2006,12,14,11,54,4.20
2006,12,14,11,55,4.20
2006,12,14,11,56,4.20
2006,12,14,11,57,4.20
2006,12,14,11,58,4.10
2006,12,14,11,59,4.10
2006,12,14,12,00,4.10
2006,12,14,12,01,4.00
2006,12,14,12,02,4.00
2006,12,14,12,03,3.90
2006,12,14,12,04,3.90
2006,12,14,12,05,3.90
2006,12,14,12,06,3.90
2006,12,14,12,07,3.90
2006,12,14,12,08,3.90
2006,12,14,12,09,3.90
2006,12,14,12,10,3.80
2006,12,14,12,11,3.80
2006,12,14,12,12,3.80
2006,12,14,12,13,3.80
2006,12,14,12,14,3.80
2006,12,14,12,15,3.70
2006,12,14,12,16,3.70
2006,12,14,12,17,3.70
2006,12,14,12,18,3.60
2006,12,14,12,19,3.60
2006,12,14,12,20,3.60
2006,12,14,12,21,3.60
2006,12,14,12,22,3.60
2006,12,14,12,23,3.60
2006,12,14,12,24,3.60
2006,12,14,12,25,3.60
2006,12,14,12,26,3.60
2006,12,14,12,27,3.70
2006,12,14,12,28,3.70
2006,12,14,12,29,3.70
2006,12,14,12,30,3.70
2006,12,14,12,31,3.70
2006,12,14,12,32,3.70
2006,12,14,12,33,3.70
2006,12,14,12,34,3.70
2006,12,14,12,35,3.70
2006,12,14,12,36,3.70
2006,12,14,12,37,3.70
2006,12,14,12,38,3.70
2006,12,14,12,39,3.70
2006,12,14,12,40,3.70
2006,12,14,12,41,3.70
2006,12,14,12,42,3.70
2006,12,14,12,43,3.70
2006,12,14,12,44,3.70
2006,12,14,12,45,3.70
2006,12,14,12,46,3.70
2006,12,14,12,47,3.70
2006,12,14,12,48,3.70
2006,12,14,12,49,3.70
2006,12,14,12,50,3.70
2006,12,14,12,51,3.70
2006,12,14,12,52,3.70
2006,12,14,12,53,3.70
2006,12,14,12,54,3.70
2006,12,14,12,55,3.70
2006,12,14,12,56,3.70
2006,12,14,12,57,3.70
2006,12,14,12,58,3.70
2006,12,14,12,59,3.70
2006,12,14,13,00,3.70
2006,12,14,13,01,3.70
2006,12,14,13,02,3.70
2006,12,14,13,03,3.70
2006,12,14,13,04,3.70
2006,12,14,13,05,3.70
2006,12,14,13,06,3.70
2006,12,14,13,07,3.70
2006,12,14,13,08,3.70
2006,12,14,13,09,3.70
2006,12,14,13,10,3.70
2006,12,14,13,11,3.70
2006,12,14,13,12,3.70
2006,12,14,13,13,3.70
2006,12,14,13,14,3.70
2006,12,14,13,15,3.70
2006,12,14,13,16,3.70
2006,12,14,13,17,3.70
2006,12,14,13,18,3.60
2006,12,14,13,19,3.60
2006,12,14,13,20,3.60
2006,12,14,13,21,3.60
2006,12,14,13,22,3.60
2006,12,14,13,23,3.70
2006,12,14,13,24,3.70
2006,12,14,13,25,3.70
2006,12,14,13,26,3.70
2006,12,14,13,27,3.70
2006,12,14,13,28,3.70
2006,12,14,13,29,3.70
2006,12,14,13,30,3.70
2006,12,14,13,31,3.70
2006,12,14,13,32,3.70
2006,12,14,13,33,3.70
2006,12,14,13,34,3.70
2006,12,14,13,35,3.70
2006,12,14,13,36,3.80
2006,12,14,13,37,3.80
2006,12,14,13,38,3.80
2006,12,14,13,39,3.80
2006,12,14,13,40,3.80
2006,12,14,13,41,3.80
2006,12,14,13,42,3.80
2006,12,14,13,43,3.80
2006,12,14,13,44,3.80
2006,12,14,13,45,3.80
2006,12,14,13,46,3.80
2006,12,14,13,47,3.80
2006,12,14,13,48,3.80
2006,12,14,13,49,3.80
2006,12,14,13,50,3.80
2006,12,14,13,51,3.80
2006,12,14,13,52,3.80
2006,12,14,13,53,3.80
2006,12,14,13,54,3.80
2006,12,14,13,55,3.90
2006,12,14,13,56,3.90
2006,12,14,13,57,3.90
2006,12,14,13,58,3.90
2006,12,14,13,59,3.90
2006,12,14,14,00,4.00
2006,12,14,14,01,4.00
2006,12,14,14,02,4.00
2006,12,14,14,03,4.00
2006,12,14,14,04,4.00
2006,12,14,14,05,3.90
2006,12,14,14,06,3.90
2006,12,14,14,07,3.90
2006,12,14,14,08,3.90
2006,12,14,14,09,3.90
2006,12,14,14,10,3.90
2006,12,14,14,11,3.90
2006,12,14,14,12,3.90
2006,12,14,14,13,3.90
2006,12,14,14,14,3.90
2006,12,14,14,15,3.90
2006,12,14,14,16,3.80
2006,12,14,14,17,3.80
2006,12,14,14,18,3.80
2006,12,14,14,19,3.80
2006,12,14,14,20,3.80
2006,12,14,14,21,3.80
2006,12,14,14,22,3.80
2006,12,14,14,23,3.80
2006,12,14,14,24,3.80
2006,12,14,14,25,3.80
2006,12,14,14,26,3.80
2006,12,14,14,27,3.80
2006,12,14,14,28,3.80
2006,12,14,14,29,3.90
2006,12,14,14,30,3.90
2006,12,14,14,31,3.90
2006,12,14,14,32,3.90
2006,12,14,14,33,3.90
2006,12,14,14,34,3.90
2006,12,14,14,35,3.90
2006,12,14,14,36,3.90
2006,12,14,14,37,3.90
2006,12,14,14,38,3.90
2006,12,14,14,39,3.90
2006,12,14,14,40,3.90
2006,12,14,14,41,3.90
2006,12,14,14,42,3.90
2006,12,14,14,43,3.90
2006,12,14,14,44,4.00
2006,12,14,14,45,4.00
2006,12,14,14,46,4.10
2006,12,14,14,47,4.10
2006,12,14,14,48,4.10
2006,12,14,14,49,4.10
2006,12,14,14,50,4.10
2006,12,14,14,51,4.10
2006,12,14,14,52,4.20
2006,12,14,14,53,4.20
2006,12,14,14,54,4.20
2006,12,14,14,55,4.20
2006,12,14,14,56,4.20
2006,12,14,14,57,4.20
2006,12,14,14,58,4.20
2006,12,14,14,59,4.30
2006,12,14,15,00,4.30
2006,12,14,15,01,4.30
2006,12,14,15,02,4.20
2006,12,14,15,03,4.20
2006,12,14,15,04,4.20
2006,12,14,15,05,4.20
2006,12,14,15,06,4.20
2006,12,14,15,07,4.20
2006,12,14,15,08,4.20
2006,12,14,15,09,4.20
2006,12,14,15,10,4.30
2006,12,14,15,11,4.30
2006,12,14,15,12,4.30
2006,12,14,15,13,4.30
2006,12,14,15,14,4.30
2006,12,14,15,15,4.30
2006,12,14,15,16,4.30
2006,12,14,15,17,4.20
2006,12,14,15,18,4.20
2006,12,14,15,19,4.10
2006,12,14,15,20,4.10
2006,12,14,15,21,4.10
2006,12,14,15,22,4.10
2006,12,14,15,23,4.00
2006,12,14,15,24,4.00
2006,12,14,15,25,4.00
2006,12,14,15,26,4.00
2006,12,14,15,27,4.00
2006,12,14,15,28,4.00
2006,12,14,15,29,4.00
2006,12,14,15,30,3.90
2006,12,14,15,31,3.90
2006,12,14,15,32,3.90
2006,12,14,15,33,3.90
2006,12,14,15,34,3.90
2006,12,14,15,35,3.90
2006,12,14,15,36,3.90
2006,12,14,15,37,3.90
2006,12,14,15,38,3.90
2006,12,14,15,39,3.90
2006,12,14,15,40,3.90
2006,12,14,15,41,3.90
2006,12,14,15,42,3.90
2006,12,14,15,43,3.90
2006,12,14,15,44,3.90
2006,12,14,15,45,3.90
2006,12,14,15,46,4.00
2006,12,14,15,47,4.00
2006,12,14,15,48,4.00
2006,12,14,15,49,4.00
2006,12,14,15,50,3.90
2006,12,14,15,51,3.90
2006,12,14,15,52,3.90
2006,12,14,15,53,3.90
2006,12,14,15,54,3.90
2006,12,14,15,55,3.90
2006,12,14,15,56,3.90
2006,12,14,15,57,3.90
2006,12,14,15,58,4.00
2006,12,14,15,59,4.00
2006,12,14,16,00,4.00
2006,12,14,16,01,4.00
2006,12,14,16,02,4.10
2006,12,14,16,03,4.10
2006,12,14,16,04,4.10
2006,12,14,16,05,4.10
2006,12,14,16,06,4.10
2006,12,14,16,07,4.10
2006,12,14,16,08,4.10
2006,12,14,16,09,4.10
2006,12,14,16,10,4.10
2006,12,14,16,11,4.10
2006,12,14,16,12,4.10
2006,12,14,16,13,4.10
2006,12,14,16,14,4.10
2006,12,14,16,15,4.10
2006,12,14,16,16,4.10
2006,12,14,16,17,4.10
2006,12,14,16,18,4.10
2006,12,14,16,19,4.10
2006,12,14,16,20,4.10
2006,12,14,16,21,4.10
2006,12,14,16,22,4.10
2006,12,14,16,23,4.10
2006,12,14,16,24,4.10
2006,12,14,16,25,4.10
2006,12,14,16,26,4.10
2006,12,14,16,27,4.20
2006,12,14,16,28,4.20
2006,12,14,16,29,4.20
2006,12,14,16,30,4.20
2006,12,14,16,31,4.30
2006,12,14,16,32,4.30
2006,12,14,16,33,4.30
2006,12,14,16,34,4.30
2006,12,14,16,35,4.30
2006,12,14,16,36,4.30
2006,12,14,16,37,4.30
2006,12,14,16,38,4.30
2006,12,14,16,39,4.30
2006,12,14,16,40,4.40
2006,12,14,16,41,4.40
2006,12,14,16,42,4.40
2006,12,14,16,43,4.50
2006,12,14,16,44,4.60
2006,12,14,16,45,4.60
2006,12,14,16,46,4.70
2006,12,14,16,47,4.70
2006,12,14,16,48,4.70
2006,12,14,16,49,4.70
2006,12,14,16,50,4.70
2006,12,14,16,51,4.70
2006,12,14,16,52,4.60
2006,12,14,16,53,4.60
2006,12,14,16,54,4.60
2006,12,14,16,55,4.50
2006,12,14,16,56,4.50
2006,12,14,16,57,4.50
2006,12,14,16,58,4.50
2006,12,14,16,59,4.50
2006,12,14,17,00,4.50
2006,12,14,17,01,4.60
2006,12,14,17,02,4.60
2006,12,14,17,03,4.60
2006,12,14,17,04,4.60
2006,12,14,17,05,4.60
2006,12,14,17,06,4.70
2006,12,14,17,07,4.70
2006,12,14,17,08,4.70
2006,12,14,17,09,4.70
2006,12,14,17,10,4.70
2006,12,14,17,11,4.70
2006,12,14,17,12,4.70
2006,12,14,17,13,4.80
2006,12,14,17,14,4.80
2006,12,14,17,15,4.80
2006,12,14,17,16,4.80
2006,12,14,17,17,4.80
2006,12,14,17,18,4.90
2006,12,14,17,19,4.90
2006,12,14,17,20,4.90
2006,12,14,17,21,5.00
2006,12,14,17,22,5.10
2006,12,14,17,23,5.10
2006,12,14,17,24,5.20
2006,12,14,17,25,5.30
2006,12,14,17,26,5.20
2006,12,14,17,27,5.20
2006,12,14,17,28,5.10
2006,12,14,17,29,5.10
2006,12,14,17,30,5.10
2006,12,14,17,31,5.10
2006,12,14,17,32,5.10
2006,12,14,17,33,5.10
2006,12,14,17,34,5.10
2006,12,14,17,35,5.10
2006,12,14,17,36,5.10
2006,12,14,17,37,5.10
2006,12,14,17,38,5.10
2006,12,14,17,39,5.10
2006,12,14,17,40,5.10
2006,12,14,17,41,5.10
2006,12,14,17,42,5.10
2006,12,14,17,43,5.20
2006,12,14,17,44,5.20
2006,12,14,17,45,5.20
2006,12,14,17,46,5.20
2006,12,14,17,47,5.20
2006,12,14,17,48,5.20
2006,12,14,17,49,5.20
2006,12,14,17,50,5.20
2006,12,14,17,51,5.30
2006,12,14,17,52,5.20
2006,12,14,17,53,5.30
2006,12,14,17,54,5.30
2006,12,14,17,55,5.30
2006,12,14,17,56,5.30
2006,12,14,17,57,5.30
2006,12,14,17,58,5.30
2006,12,14,17,59,5.30
2006,12,14,18,00,5.40
2006,12,14,18,01,5.40
2006,12,14,18,02,5.40
2006,12,14,18,03,5.40
2006,12,14,18,04,5.40
2006,12,14,18,05,5.50
2006,12,14,18,06,5.50